Location: N�rnberg
(49.4471°N, 11.0632°E)
Time: 21:08:09
(UTC+02:00)

VELOX 1 - Pass Details

Date: 27 April 2026
Orbit: 569 x 580 km, 98.3° (Epoch: 13 May)

Event Time Altitude Azimuth Distance (km) Brightness Sun altitude
Rises 23:40:02 0° 27° (NNE) 2,785 ? -23.2°
Reaches altitude 10° 23:42:41 10° 45° (NE) 1,883 ? -23.4°
Enters shadow 23:44:21 17° 67° (ENE) 1,479 ? -23.5°
